Regional Weather Roundup
Issued by NWS

Home | Current Version | Previous Version | Text Only | Print | Product List | Glossary On
Versions: 1 2 3 4 5 6 7 8 9 10 11 12 13 14 15 16 17 18 19 20 21 22 23 24 25 26 27 28 29 30 31 32 33 34 35 36 37 38 39 40 41 42 43 44 45 46 47 48 49 50
000
ASUS43 KTOP 031259
RWRKS

WEATHER ROUNDUP FOR KANSAS
NATIONAL WEATHER SERVICE GOODLAND KS
700 AM CST SAT DEC 03 2016

NOTE:  "FAIR" INDICATES FEW OR NO CLOUDS BELOW 12,000 FEET WITH NO
SIGNIFICANT WEATHER AND/OR OBSTRUCTIONS TO VISIBILITY.

KSZ001>006-013>018-027>032-041>047-031400-
NORTHWEST KANSAS

CITY           SKY/WX    TMP DP  RH WIND       PRES   REMARKS
GOODLAND       CLOUDY    21  14  74 S9        30.12S
HAYS           LGT SNOW  33  27  78 VRB3      30.21F
HILL CITY      CLOUDY    31  26  82 CALM      30.20F
RUSSELL        CLOUDY    33  27  78 CALM      30.20F
$$

KSZ061>065-074>080-084>089-031400-
SOUTHWEST KANSAS

CITY           SKY/WX    TMP DP  RH WIND       PRES   REMARKS
DODGE CITY     CLOUDY    32  32 100 N6        30.17F FOG
ELKHART          N/A     31  25  79 NW3         N/A
GARDEN CITY    CLOUDY    32  31  96 NE3       30.14F FOG
GREAT BEND     CLOUDY    35  29  78 N8        30.20F
LIBERAL        CLOUDY    34  28  80 NE6       30.14F
$$

KSZ066>073-081>083-090>101-031400-
SOUTHEAST KANSAS

CITY           SKY/WX    TMP DP  RH WIND       PRES   REMARKS
CHANUTE        CLOUDY    42  28  57 E9        30.23S
COFFEYVILLE    CLOUDY    44  31  60 E5        30.22S
HUTCHINSON     CLOUDY    37  28  70 NE7       30.20F
MEDICINE LODGE   N/A     39  30  70 E6        30.17F
NEWTON         MIX PCPN  36  28  73 E10       30.20F WCI  28
PARSONS        CLOUDY    43  30  60 NE6       30.23R
WICHITA INTL   CLOUDY    40  32  73 NE7       30.19F
WICHITA JABRA  LGT RAIN  39  31  72 E6        30.20S
WINFIELD       CLOUDY    43  28  55 E6        30.20S
$$

KSZ007>012-019>026-033>040-048>060-102>105-031400-
NORTHEAST KANSAS

CITY           SKY/WX    TMP DP  RH WIND       PRES   REMARKS
CONCORDIA      CLOUDY    30  28  92 E5        30.24F
EMPORIA        CLOUDY    37  28  70 NE8       30.24S
LAWRENCE       CLOUDY    32  30  92 NE3       30.29F
MANHATTAN      PTCLDY    32  28  85 NE5       30.27F
OLATHE IND     CLOUDY    37  29  72 E8        30.27F
OLATHE EXE     CLOUDY    35  28  75 NE9       30.27F
SALINA         CLOUDY    37  28  70 CALM      30.25S
TOPEKA BILLARD CLOUDY    31  27  85 CALM      30.29R
TOPEKA FORBES  CLOUDY    35  30  82 NE3       30.28R
$$



USA.gov is the U.S. government's official web portal to all federal, state and local government web resources and services.